This demonstration page uses our WeatherBlox Daily Observations layout. Learn more.

Left ArrowRight Arrow

Hourly Observations for December 31, 2019

Temp ( °F °C ) Dew Point ( °F °C ) Humidity (%) Winds ( mph kmh ) Pressure ( in mb ) Visibility ( mi km ) Precip ( " mm )
12:52 am 00:52 Cloudy 31 -0.6 23 -5 72 72 NW 21 33 29.89 1012 10 16 0.00 0.00
1:52 am 01:52 Cloudy 31 -0.6 23 -5 72 72 NW 17 28 29.90 1013 10 16 0.00 0.00
2:52 am 02:52 Cloudy 31 -0.6 24 -4.4 76 76 NW 15 24 29.92 1013 10 16 0.00 0.00
3:52 am 03:52 Cloudy 31 -0.6 24 -4.4 76 76 NW 21 33 29.93 1014 10 16 0.00 0.00
4:52 am 04:52 Cloudy 31 -0.6 23 -5 72 72 NW 17 28 29.93 1014 10 16 0.00 0.00
5:24 am 05:24 Cloudy 31 -0.6 24 -4.4 76 76 NW 16 26 29.96 1015 10 16 0.00 0.00
5:52 am 05:52 Cloudy 31 -0.6 23 -5 72 72 NW 18 30 29.96 1014 10 16 0.00 0.00
6:23 am 06:23 Cloudy 30 -1.1 24 -4.4 79 79 NW 14 22 30.00 1016 9 14 0.00 0.00
6:52 am 06:52 Cloudy with Light Snow 30 -1.1 24 -4.4 79 79 NW 14 22 29.97 1015 7 11 0.00 0.00
7:37 am 07:37 Cloudy with Light Snow 30 -1.1 25 -3.9 82 82 NW 10 17 30.01 1016 9 14 0.00 0.00
7:52 am 07:52 Cloudy 30 -1.1 25 -3.9 82 82 NW 8 13 29.98 1015 10 16 0.00 0.00
8:52 am 08:52 Mostly Cloudy 31 -0.6 23 -5 72 72 WNW 12 19 29.99 1016 10 16 0.00 0.00
9:22 am 09:22 Mostly Cloudy 32 0 22 -5.6 66 66 WNW 14 22 30.02 1017 10 16 0.00 0.00
9:52 am 09:52 Mostly Cloudy 33 0.6 22 -5.6 64 64 NW 17 28 30.01 1016 10 16 0.00 0.00
10:52 am 10:52 Mostly Cloudy 32 0 20 -6.7 61 61 NW 15 24 30.02 1017 10 16 0.00 0.00
11:52 am 11:52 Mostly Cloudy 34 1.1 22 -5.6 61 61 WNW 14 22 30.00 1016 10 16 0.00 0.00
12:52 pm 12:52 Mostly Cloudy 35 1.7 22 -5.6 59 59 WNW 10 17 29.99 1016 10 16 0.00 0.00
1:52 pm 13:52 Mostly Cloudy 36 2.2 21 -6.1 55 55 WNW 14 22 29.97 1015 10 16 0.00 0.00
2:52 pm 14:52 Mostly Cloudy 37 2.8 22 -5.6 54 54 WNW 13 20 29.97 1015 10 16 0.00 0.00
3:52 pm 15:52 Partly Cloudy 37 2.8 22 -5.6 54 54 WSW 9 15 29.96 1015 10 16 0.00 0.00
4:52 pm 16:52 Mostly Sunny 36 2.2 21 -6.1 55 55 W 3 6 29.96 1014 10 16 0.00 0.00
5:52 pm 17:52 Clear 34 1.1 19 -7.2 54 54 Calm 29.96 1015 10 16 0.00 0.00
6:52 pm 18:52 Clear 29 -1.7 20 -6.7 69 69 S 3 6 29.94 1014 10 16 0.00 0.00
7:52 pm 19:52 Clear 27 -2.8 21 -6.1 78 78 SSE 5 7 29.93 1014 10 16 0.00 0.00
8:52 pm 20:52 Clear 28 -2.2 21 -6.1 75 75 SSE 5 7 29.92 1013 10 16 0.00 0.00
9:52 pm 21:52 Clear 25 -3.9 20 -6.7 81 81 SSE 7 11 29.91 1013 10 16 0.00 0.00
10:52 pm 22:52 Clear 26 -3.3 21 -6.1 81 81 SSE 6 9 29.90 1013 10 16 0.00 0.00
11:52 pm 23:52 Clear 24 -4.4 21 -6.1 88 88 S 6 9 29.88 1012 10 16 0.00 0.00

Powered by AerisWeather